Location: Decatur Area Astronomy Club
(40.0275°N, 88.7810°W)
Time: 08:50:37
(UTC-05:00)

Daily predictions for brighter satellites

Satellite Brightness Start Highest point End
(mag) Time Altitude Azimuth Time Altitude Azimuth Time Altitude Azimuth
Cosmos 1980 3.8 20:54:49 10° NNW 21:00:33 85° ENE 21:06:14 10° SSE
Cosmos 1140 Rocket 3.6 20:55:58 10° S 21:00:59 53° ESE 21:05:59 10° NNE
ATLAS 5 CENTAUR R/B 2.4 21:02:13 10° S 21:06:17 32° ESE 21:10:37 10° NE
Atlas Centaur 2 2.7 21:04:36 10° SW 21:07:07 18° S 21:09:37 10° SE
Cosmos-2242 4.2 21:03:49 10° NNW 21:07:52 43° W 21:11:55 10° SSW
Lacrosse 4 Rocket 1.8 21:04:01 10° SW 21:08:12 70° WNW 21:12:32 10° NNE
Cosmos 2237 Rocket 2.3 21:05:35 10° NNW 21:11:14 86° WSW 21:16:51 10° SSE
Cosmos 407 Rocket 4.4 21:06:46 10° SW 21:11:45 53° WNW 21:16:46 10° N
Tiangong 1 0.7 21:10:48 10° WSW 21:13:34 65° SSE 21:16:19 10° ENE
Cosmos 1023 Rocket 4.4 21:11:32 10° SSW 21:16:41 76° ESE 21:21:48 10° NNE
Milstar 3 Cent rocket 4.0 21:12:07 10° WSW 21:18:38 39° S 21:31:02 10° ESE
YAOGAN 6 2.6 21:15:02 10° SSE 21:18:38 79° ENE 21:22:18 10° N
Cosmos 1076 Rocket 4.5 21:16:46 10° SSE 21:20:33 30° E 21:24:21 10° NNE
USA 186 4.1 21:19:51 10° SW 21:21:10 13° W 21:22:27 10° WNW
Meteor 1-24 Rocket 4.0 21:16:33 10° S 21:22:31 82° W 21:28:20 10° N
Okean 3 Rocket 4.0 21:18:17 10° SSE 21:22:34 44° E 21:26:51 10° NNE
SL-8 R/B 4.1 21:19:21 10° WNW 21:24:00 53° SW 21:28:07 13° SE
Cosmos 1954 Rocket 4.2 21:19:27 10° SSW 21:24:38 76° WNW 21:29:51 10° NNE
Cosmos 2227 Rocket 2.9 21:19:42 10° SW 21:25:17 60° WNW 21:30:53 10° NNE
Cosmos 1850 Rocket 4.1 21:23:28 10° S 21:28:29 53° ESE 21:33:31 10° NNE
Cosmos 1908 4.1 21:25:42 10° NNE 21:29:15 33° ENE 21:31:56 15° SE
Cosmos 1356 Rocket 4.2 21:25:40 11° SSE 21:29:21 33° E 21:33:12 10° NNE
Cosmos 2221 2.8 21:27:16 10° N 21:31:36 54° E 21:35:20 13° SSE
Cosmos 1674 3.2 21:29:46 12° SSE 21:33:01 38° E 21:36:32 10° NNE
SL-16 R/B 2.4 21:28:18 10° NNW 21:33:56 62° ENE 21:38:38 15° SE
H-2A R/B 3.2 21:31:57 13° ESE 21:35:52 31° ENE 21:40:33 10° N
Cosmos 614 Rocket 4.0 21:32:11 10° SSW 21:37:24 86° WNW 21:42:38 10° NNE
In-Cosmos 22 4.4 21:36:15 10° SSW 21:41:56 77° W 21:47:43 10° N
Resurs 01 Rocket 4.4 21:40:48 10° WSW 21:42:56 13° W 21:45:05 10° WNW
Cosmos 1818 3.9 21:37:49 10° NNW 21:43:12 57° NE 21:47:13 18° SE
SPOT 5 3.3 21:39:46 16° SE 21:43:20 48° ENE 21:48:09 10° N
ARGOS 3.4 21:39:06 15° SSE 21:43:33 56° ENE 21:48:50 10° N
USA 234 3.2 21:37:18 10° NE 21:43:51 72° SE 21:50:22 10° SW
USA 245 3.6 21:42:55 21° SE 21:44:40 39° ENE 21:48:15 10° N
Cosmos 1766 Rocket 4.2 21:41:52 17° SSE 21:44:43 36° E 21:48:42 10° NNE
Lacrosse 5 3.6 21:42:10 10° NNW 21:46:22 25° NNE 21:50:34 10° E
ERS-1 Rocket 3.0 21:41:41 11° SSE 21:46:31 84° WSW 21:51:36 10° NNW
MetOp-A 4.1 21:43:18 13° SSE 21:48:03 80° ENE 21:53:26 10° N
Cosmos 1741 Rocket 4.0 21:46:47 10° SSW 21:52:06 86° ESE 21:57:27 10° NNE
Cosmos 2333 Rocket 4.0 21:47:51 10° NW 21:52:25 26° WSW 21:56:57 10° SSW
Cosmos 2219 Rocket 4.4 21:50:02 10° NW 21:54:02 20° W 21:58:01 10° SW
Cosmos 2061 Rocket 4.1 21:49:42 10° N 21:56:03 66° E 22:01:00 18° SSE
Cosmos 2100 Rocket 4.0 21:51:55 10° N 21:58:15 81° E 22:03:34 15° S
RESURS DK-1 4.0 21:55:10 10° N 21:58:31 23° NE 22:00:38 16° E
Cosmos 1459 Rocket 4.0 21:54:44 10° N 22:01:05 79° E 22:06:02 17° SSE
H-2A R/B 3.9 22:00:30 14° E 22:02:19 18° ENE 22:05:15 10° NNE
Cosmos 1000 Rocket 4.5 21:58:54 10° S 22:05:13 82° E 22:11:32 10° N
NOAA 11 4.5 22:00:50 13° S 22:05:40 65° WSW 22:11:05 10° NNW
Cosmos 2227 4.4 22:01:00 10° S 22:06:27 52° ESE 22:11:58 10° NNE
Cosmos 2123 Rocket 4.3 22:05:26 20° SSE 22:09:28 49° E 22:15:23 10° NNE
EO 1 Delta rocket 4.0 22:08:12 24° SSE 22:10:55 57° ENE 22:15:27 10° N
NOSS 3-4 (A) 4.4 22:04:05 10° NW 22:10:57 51° WSW 22:16:43 17° S
Meteor 1-21 Rocket 4.2 22:05:17 10° S 22:11:01 87° W 22:16:40 10° N
NOSS 3-4 (C) 4.4 22:04:11 10° NW 22:11:03 52° WSW 22:16:48 17° S
Cosmos 2173 Rocket 4.0 22:06:53 10° N 22:13:03 85° W 22:17:52 18° S
Landsat 7 4.1 22:16:34 28° SE 22:18:48 52° ENE 22:23:25 10° N
SL-14 R/B 3.7 22:19:16 35° SE 22:20:19 43° E 22:24:06 10° NNE
Cosmos 1328 4.2 22:22:18 36° SE 22:23:24 47° E 22:27:17 10° NNE
Cosmos 2208 Rocket 4.3 22:18:23 10° NNW 22:23:40 67° WSW 22:26:54 24° S
Cosmos 2084 3.8 22:20:07 10° SW 22:24:04 58° NW 22:27:53 10° NNE
Cosmos 2297 Rocket 4.5 22:21:45 10° WSW 22:26:24 26° NW 22:31:04 10° N
IGS 5A 4.2 22:26:45 31° ESE 22:27:57 39° ENE 22:31:50 10° N
Cosmos 1242 Rocket 3.5 22:24:45 10° NNW 22:28:20 45° W 22:30:10 24° SSW
Cosmos 1802 Rocket 4.1 22:22:46 10° N 22:28:54 74° W 22:33:11 21° S
Nimbus 7 Rocket 4.4 22:23:00 10° NNE 22:29:03 89° WNW 22:34:24 13° SSW
SPOT 1/Viking Rocket 3.5 22:27:37 27° S 22:30:30 81° WSW 22:35:40 10° NNW
Cosmos 1814 Rocket 4.4 22:27:35 10° N 22:32:48 50° ENE 22:34:58 31° SE
Cosmos 1725 Rocket 4.0 22:27:22 10° N 22:33:39 70° E 22:36:51 30° SSE
Terra 2.2 22:31:59 33° SE 22:33:44 51° ENE 22:38:21 10° N
Cosmos 1486 Rocket 4.4 22:33:16 34° SE 22:34:50 42° ESE 22:39:49 10° NNE
Cosmos 1300 2.6 22:35:07 10° N 22:38:57 74° E 22:39:44 53° SSE
Cosmos 2263 Rocket 2.9 22:38:52 31° ESE 22:39:43 33° ESE 22:44:39 10° NE
Cosmos 1626 3.3 22:46:13 28° ENE 22:46:13 28° ENE 22:49:02 10° NNE
deb Chang Zheng 4 3.9 22:42:29 10° NNE 22:46:41 45° E 22:47:09 43° ESE
Cosmos 841 Rocket 4.2 22:43:17 10° N 22:48:16 42° ENE 22:49:58 32° ESE
Tiangong 1 1.7 22:46:32 10° W 22:49:14 45° N 22:49:18 45° N
Cosmos 220 Rocket 3.9 22:48:02 44° S 22:49:21 74° ESE 22:53:46 10° NNE
ATLAS 5 CENTAUR R/B 3.6 22:46:40 10° WSW 22:50:52 32° NW 22:55:27 10° NNE
Cosmos 332 Rocket 3.7 22:46:16 10° NNW 22:51:11 86° ENE 22:52:42 45° SSE
Cosmos 1763 Rocket 3.6 22:47:39 10° NNW 22:52:43 58° ENE 22:54:12 41° SE
Cosmos 1726 2.7 22:49:47 10° NNW 22:53:22 50° W 22:54:09 41° SW
Cosmos 1603 3.7 22:55:10 10° NNW 23:00:49 73° WSW 23:02:49 41° S
Meteor 2-10 4.2 22:55:21 10° NNW 23:00:56 77° W 23:03:14 37° S
Cosmos 1500 Rocket 3.6 23:05:52 50° SSW 23:07:01 80° W 23:11:30 10° N
Cosmos 2058 2.7 23:12:00 73° SSE 23:12:22 84° E 23:16:36 10° N
Cosmos 1455 3.1 23:09:36 10° N 23:12:57 37° ENE 23:12:57 37° ENE
H-2A R/B 3.4 23:12:35 22° SW 23:15:10 33° W 23:20:00 10° NNW
CARTOSAT-1 4.0 23:15:43 46° SW 23:16:30 53° W 23:20:44 10° NNW
SL-16 R/B 4.3 23:13:52 10° WNW 23:17:27 17° W 23:20:31 12° SW
Cosmos 1943 3.1 23:13:30 10° NNW 23:19:10 79° ENE 23:20:39 51° SE
Cosmos 1503 Rocket 4.0 23:19:42 54° SE 23:20:11 56° ESE 23:25:15 10° NNE
Cosmos 2151 3.3 23:22:03 52° SW 23:22:48 63° W 23:27:05 10° N
Cosmos 1703 3.2 23:25:25 83° WNW 23:25:25 83° WNW 23:29:23 10° N
Cosmos 1805 Rocket 4.0 23:26:04 45° ENE 23:26:04 45° ENE 23:29:54 10° NNE
Cosmos 2228 Rocket 4.3 23:24:02 10° NNW 23:28:12 35° W 23:29:26 29° WSW
Cosmos 2233 Rocket 4.1 23:23:17 10° NNW 23:29:28 69° W 23:31:37 41° SSW
CZ-2C R/B 4.4 23:28:02 29° E 23:29:40 34° ENE 23:34:45 10° N
Lacrosse 5 1.8 23:24:43 10° NW 23:29:46 70° SW 23:30:17 64° S
Cosmos 1633 Rocket 4.3 23:33:49 28° ENE 23:33:49 28° ENE 23:36:56 10° NNE
RESURS DK-1 3.7 23:32:55 10° NW 23:36:33 30° WSW 23:36:33 30° WSW
H-2A R/B 2.9 23:37:37 38° WSW 23:38:02 39° W 23:42:04 10° NNW
Abrixas rocket 3.7 23:36:03 10° NW 23:38:21 36° NNW 23:38:21 36° NNW
Cosmos 371 Rocket 4.2 23:38:02 10° NW 23:42:26 36° WSW 23:43:02 34° WSW
ARGOS Delta rocket 3.9 23:42:18 10° NNE 23:47:38 67° E 23:47:59 65° SE
Cosmos 1151 Rocket 4.2 23:44:26 10° NNW 23:48:23 33° W 23:48:52 32° WSW
CZ-4B R/B 4.1 23:47:13 10° N 23:52:22 56° WNW 23:53:59 39° SW
Cosmos 968 Rocket 4.4 23:53:51 35° E 23:53:51 35° E 23:58:07 10° NE
SME Rocket 3.3 23:55:03 59° WNW 23:55:03 59° WNW 23:58:50 10° NNW
